Location: Nairn
(57.5833°N, 3.8667°W)
Time: 19:21:08
(UTC+00:00)

Cosmos 1733 - Pass Details

Date: 07 August 2020
Orbit: 504 x 522 km, 82.5° (Epoch: 24 September)

Event Time Altitude Azimuth Distance (km) Brightness Sun altitude
Exits shadow 03:17:57 10° 215° (SW) 1,762 5.2 -7.6°
Reaches altitude 10° 03:18:00 10° 215° (SW) 1,742 5.2 -7.6°
Maximum altitude 03:21:41 45° 289° (WNW) 721 3.8 -7.2°
Drops below altitude 10° 03:25:25 10° 3° (N) 1,766 6.7 -6.9°
Sets 03:27:38 0° 10° (N) 2,662 7.9 -6.7°
